Location: ????
(33.1659°N, 35.6604°E)
Time: 09:10:48
(UTC+00:00)

COSMOS 2428 - Pass Details

Date: 20 September 2019
Orbit: 845 x 856 km, 70.9° (Epoch: 18 October)

Event Time Altitude Azimuth Distance (km) Brightness Sun altitude
Rises 16:35:37 0° 341° (NNW) 3,409 6.3 -12.9°
Reaches altitude 10° 16:38:04 10° 343° (NNW) 2,471 5.5 -13.4°
Maximum altitude 16:43:45 75° 69° (ENE) 878 2.6 -14.6°
Drops below altitude 10° 16:49:24 10° 154° (SSE) 2,463 4.8 -15.8°
Enters shadow 16:50:05 - 155° (SSE) 2,722 5.0 -15.9°
